When you browse on this site, cookies collect data to enhance your experience and personalize the content and advertising you see.
Visit our Privacy Policy to learn more. By continuing to use the site, you agree to this use of cookies and data.
  • In Austria
  • List of Countries
  • For 7 days
  • Water Temperature
  • Satellite Maps
  • Weather Map
  • News
  • Weather Widgets
  • user-avatar
    Login

    Hourly Weather Santiago del Estero

    Today, 19 January, Saturday

    Time Temperature Precipitation Wind Pressure Humidity
    00:00 +20°C° 0 mm 2 mps 748 mmHg 78%
    01:00 +19°C° 0 mm 2 mps 748 mmHg 82%
    02:00 +20°C° 0 mm 1 mps 748 mmHg 85%
    03:00 +19°C° 0 mm 1 mps 748 mmHg 87%
    04:00 +19°C° 0 mm 1 mps 748 mmHg 88%
    05:00 +18°C° 0 mm 1 mps 747 mmHg 89%
    06:00 +20°C° 0 mm 1 mps 748 mmHg 84%
    07:00 +21°C° 0 mm 1 mps 748 mmHg 78%
    08:00 +22°C° 0 mm 1 mps 748 mmHg 73%
    09:00 +24°C° 0 mm 2 mps 748 mmHg 67%
    10:00 +25°C° 0 mm 2 mps 748 mmHg 61%
    11:00 +26°C° 0 mm 2 mps 748 mmHg 56%
    12:00 +28°C° 0 mm 2 mps 747 mmHg 52%
    13:00 +29°C° 0 mm 2 mps 747 mmHg 47%
    14:00 +30°C° 0 mm 3 mps 746 mmHg 43%
    15:00 +30°C° 0 mm 3 mps 745 mmHg 43%
    16:00 +30°C° 0 mm 3 mps 745 mmHg 43%
    17:00 +30°C° 0 mm 3 mps 744 mmHg 43%
    18:00 +28°C° 0 mm 3 mps 744 mmHg 48%
    19:00 +27°C° 0 mm 3 mps 745 mmHg 54%
    20:00 +25°C° 0 mm 3 mps 745 mmHg 59%
    21:00 +24°C° 0 mm 3 mps 745 mmHg 63%
    22:00 +22°C° 0 mm 3 mps 746 mmHg 67%
    23:00 +21°C° 0 mm 3 mps 746 mmHg 71%

    Tomorrow, 20 January, Sunday

    Time Temperature Precipitation Wind Pressure Humidity
    00:00 +21°C° 0 mm 3 mps 746 mmHg 75%
    01:00 +20°C° 0 mm 3 mps 745 mmHg 79%
    02:00 +20°C° 0 mm 2 mps 745 mmHg 83%
    03:00 +19°C° 0 mm 2 mps 744 mmHg 86%
    04:00 +19°C° 0 mm 2 mps 744 mmHg 89%
    05:00 +18°C° 0 mm 2 mps 743 mmHg 91%
    06:00 +20°C° 0 mm 2 mps 744 mmHg 87%
    07:00 +21°C° 0 mm 3 mps 744 mmHg 82%
    08:00 +22°C° 0 mm 3 mps 744 mmHg 78%
    09:00 +25°C° 0 mm 3 mps 744 mmHg 70%
    10:00 +27°C° 0 mm 4 mps 744 mmHg 63%
    11:00 +28°C° 0 mm 4 mps 744 mmHg 56%
    12:00 +30°C° 0 mm 4 mps 743 mmHg 53%
    13:00 +32°C° 0 mm 4 mps 742 mmHg 50%
    14:00 +33°C° 0 mm 4 mps 741 mmHg 46%
    15:00 +33°C° 0 mm 4 mps 740 mmHg 46%
    16:00 +33°C° 0 mm 4 mps 740 mmHg 46%
    17:00 +33°C° 0 mm 4 mps 739 mmHg 45%
    18:00 +30°C° 0 mm 4 mps 739 mmHg 50%
    19:00 +28°C° 0 mm 4 mps 739 mmHg 55%
    20:00 +27°C° 0 mm 3 mps 739 mmHg 59%
    21:00 +26°C° 0 mm 4 mps 740 mmHg 65%
    22:00 +25°C° 0 mm 4 mps 740 mmHg 70%
    23:00 +25°C° 0 mm 4 mps 741 mmHg 75%

    Day after tomorrow, 21 January, Monday

    Time Temperature Precipitation Wind Pressure Humidity
    00:00 +23°C° 0 mm 4 mps 741 mmHg 78%
    01:00 +24°C° 0 mm 3 mps 740 mmHg 81%
    02:00 +23°C° 0 mm 2 mps 740 mmHg 84%
    03:00 +23°C° 0 mm 2 mps 740 mmHg 86%
    04:00 +21°C° 0 mm 2 mps 740 mmHg 87%
    05:00 +22°C° 0 mm 1 mps 740 mmHg 89%
    06:00 +23°C° 0 mm 2 mps 740 mmHg 84%
    07:00 +25°C° 0 mm 2 mps 741 mmHg 79%
    08:00 +26°C° 0 mm 3 mps 742 mmHg 73%
    09:00 +28°C° 0 mm 3 mps 742 mmHg 65%
    10:00 +30°C° 0 mm 3 mps 742 mmHg 57%
    11:00 +33°C° 0 mm 3 mps 742 mmHg 48%
    12:00 +34°C° 0 mm 4 mps 742 mmHg 45%
    13:00 +35°C° 0 mm 4 mps 741 mmHg 42%
    14:00 +36°C° 0 mm 4 mps 740 mmHg 39%
    15:00 +36°C° 0 mm 3 mps 740 mmHg 40%
    16:00 +36°C° 0 mm 3 mps 739 mmHg 41%
    17:00 +36°C° 0 mm 3 mps 738 mmHg 42%
    18:00 +34°C° 0 mm 2 mps 739 mmHg 46%
    19:00 +32°C° 0 mm 2 mps 739 mmHg 49%
    20:00 +30°C° 0 mm 2 mps 739 mmHg 53%
    21:00 +30°C° 0 mm 2 mps 739 mmHg 56%
    22:00 +29°C° 0 mm 2 mps 740 mmHg 60%
    23:00 +29°C° 0 mm 3 mps 740 mmHg 63%

    22 January, Tuesday

    Time Temperature Precipitation Wind Pressure Humidity
    00:00 +28°C° 0 mm 3 mps 740 mmHg 65%
    01:00 +28°C° 0 mm 2 mps 739 mmHg 67%
    02:00 +27°C° 0 mm 2 mps 739 mmHg 69%
    03:00 +27°C° 0 mm 2 mps 738 mmHg 70%
    04:00 +26°C° 0 mm 2 mps 738 mmHg 72%
    05:00 +26°C° 0 mm 2 mps 738 mmHg 74%
    06:00 +27°C° 0 mm 2 mps 738 mmHg 69%
    07:00 +28°C° 0 mm 2 mps 738 mmHg 65%
    08:00 +29°C° 0 mm 3 mps 738 mmHg 61%
    09:00 +31°C° 0 mm 3 mps 738 mmHg 56%
    10:00 +34°C° 0 mm 3 mps 738 mmHg 51%
    11:00 +35°C° 0 mm 4 mps 738 mmHg 45%
    12:00 +37°C° 0 mm 4 mps 737 mmHg 42%
    13:00 +39°C° 0 mm 5 mps 737 mmHg 39%
    14:00 +41°C° 0 mm 5 mps 736 mmHg 35%
    15:00 +42°C° 0 mm 5 mps 736 mmHg 34%
    16:00 +42°C° 0 mm 4 mps 735 mmHg 33%
    17:00 +43°C° 0 mm 4 mps 735 mmHg 32%
    18:00 +41°C° 0 mm 4 mps 735 mmHg 35%
    19:00 +38°C° 0 mm 3 mps 736 mmHg 39%
    20:00 +36°C° 0 mm 2 mps 736 mmHg 42%
    21:00 +35°C° 0 mm 2 mps 736 mmHg 47%
    22:00 +32°C° 0 mm 2 mps 737 mmHg 52%
    23:00 +31°C° 0 mm 1 mps 737 mmHg 58%

    23 January, Wednesday

    Time Temperature Precipitation Wind Pressure Humidity
    00:00 +31°C° 0 mm 1 mps 737 mmHg 59%
    01:00 +30°C° 0 mm 1 mps 737 mmHg 60%
    02:00 +30°C° 0 mm 1 mps 736 mmHg 62%
    03:00 +30°C° 0 mm 1 mps 737 mmHg 62%
    04:00 +29°C° 0 mm 2 mps 737 mmHg 63%
    05:00 +29°C° 0 mm 2 mps 737 mmHg 63%
    06:00 +31°C° 0 mm 2 mps 737 mmHg 61%
    07:00 +33°C° 0 mm 3 mps 738 mmHg 59%
    08:00 +34°C° 0 mm 3 mps 739 mmHg 57%
    09:00 +36°C° 0 mm 3 mps 739 mmHg 51%
    10:00 +38°C° 0 mm 4 mps 739 mmHg 44%
    11:00 +42°C° 0 mm 4 mps 739 mmHg 38%
    12:00 +43°C° 0 mm 4 mps 738 mmHg 35%
    13:00 +44°C° 0 mm 4 mps 738 mmHg 32%
    14:00 +45°C° 0 mm 4 mps 737 mmHg 29%
    15:00 +45°C° 0 mm 4 mps 737 mmHg 29%
    16:00 +45°C° 0 mm 4 mps 737 mmHg 29%
    17:00 +45°C° 0 mm 4 mps 736 mmHg 29%
    18:00 +42°C° 0 mm 4 mps 736 mmHg 33%
    19:00 +40°C° 0 mm 4 mps 737 mmHg 37%
    20:00 +37°C° 0 mm 4 mps 737 mmHg 41%
    21:00 +36°C° 0 mm 4 mps 737 mmHg 46%
    22:00 +35°C° 0 mm 4 mps 737 mmHg 51%
    23:00 +34°C° 0 mm 4 mps 738 mmHg 57%

    24 January, Thursday

    Time Temperature Precipitation Wind Pressure Humidity
    00:00 +33°C° 0 mm 3 mps 737 mmHg 60%
    01:00 +33°C° 0 mm 3 mps 737 mmHg 64%
    02:00 +31°C° 0 mm 2 mps 737 mmHg 68%
    03:00 +30°C° 0 mm 2 mps 737 mmHg 69%
    04:00 +30°C° 0 mm 2 mps 736 mmHg 70%
    05:00 +29°C° 0 mm 2 mps 736 mmHg 72%
    06:00 +30°C° 0 mm 3 mps 737 mmHg 67%
    07:00 +31°C° 0 mm 3 mps 737 mmHg 63%
    08:00 +33°C° 0 mm 4 mps 737 mmHg 58%
    09:00 +35°C° 0 mm 4 mps 737 mmHg 52%
    10:00 +37°C° 0 mm 4 mps 737 mmHg 46%
    11:00 +40°C° 0 mm 5 mps 737 mmHg 40%
    12:00 +42°C° 0 mm 5 mps 736 mmHg 37%
    13:00 +44°C° 0 mm 6 mps 735 mmHg 33%
    14:00 +45°C° 0 mm 7 mps 734 mmHg 29%
    15:00 +46°C° 0 mm 6 mps 733 mmHg 29%
    16:00 +46°C° 0 mm 6 mps 733 mmHg 28%
    17:00 +46°C° 0 mm 5 mps 732 mmHg 28%
    18:00 +43°C° 0 mm 4 mps 732 mmHg 30%
    19:00 +41°C° 0 mm 4 mps 732 mmHg 32%
    20:00 +38°C° 0 mm 3 mps 732 mmHg 34%
    21:00 +37°C° 0 mm 3 mps 733 mmHg 34%
    22:00 +37°C° 0 mm 4 mps 733 mmHg 34%
    23:00 +37°C° 0 mm 4 mps 733 mmHg 33%
    Show more